Wetterdaten: Woche 05.01.15 - 11.01.15 (KW2)
Datum Zeit Temp. A. Feuchte A. Luftdruck Regen Wind Richtung Sonnenschein ET UV Solar Taupunkt Windchill Windben Empfang
05.01.2015 00:00 0,5 C 74 % 1031,8 hPa 0,0 l/m 6,6 km/h (2 Bft) W-SW 0,00 h 0,000 mm 0,0 UV-I 0 W/m -3,6 C -0,9 C 9,9 km/h (2 Bft) 0,00 %
05.01.2015 01:00 0,3 C 74 % 1032,1 hPa 0,0 l/m 5,1 km/h (1 Bft) W-SW 0,00 h 0,000 mm 0,0 UV-I 0 W/m -3,8 C -0,5 C 9,9 km/h (2 Bft) 0,00 %
05.01.2015 02:00 0,3 C 73 % 1032,4 hPa 0,0 l/m 5,7 km/h (1 Bft) W-SW 0,00 h 0,000 mm 0,0 UV-I 0 W/m -4,0 C -0,4 C 10,9 km/h (2 Bft) 0,00 %
05.01.2015 03:00 0,3 C 75 % 1032,3 hPa 0,0 l/m 6,7 km/h (2 Bft) W-SW 0,00 h 0,000 mm 0,0 UV-I 0 W/m -3,7 C -0,7 C 9,9 km/h (2 Bft) 0,00 %
05.01.2015 04:00 0,5 C 73 % 1032,1 hPa 0,0 l/m 3,1 km/h (1 Bft) W-SW 0,00 h 0,000 mm 0,0 UV-I 0 W/m -3,8 C 0,0 C 6,0 km/h (2 Bft) 0,00 %
05.01.2015 05:00 0,7 C 72 % 1032,1 hPa 0,0 l/m 4,5 km/h (1 Bft) W-SW 0,00 h 0,000 mm 0,0 UV-I 0 W/m -3,8 C 0,5 C 8,9 km/h (2 Bft) 0,00 %
05.01.2015 06:00 0,6 C 71 % 1031,9 hPa 0,0 l/m 4,2 km/h (1 Bft) SW 0,00 h 0,000 mm 0,0 UV-I 0 W/m -3,9 C 0,6 C 7,9 km/h (2 Bft) 0,00 %
05.01.2015 07:00 0,9 C 69 % 1032,3 hPa 0,0 l/m 3,1 km/h (1 Bft) W-SW 0,00 h 0,000 mm 0,0 UV-I 0 W/m -4,1 C 0,8 C 6,0 km/h (2 Bft) 0,00 %
05.01.2015 08:00 0,7 C 71 % 1032,5 hPa 0,0 l/m 5,5 km/h (1 Bft) SO 0,00 h 0,000 mm 0,0 UV-I 0 W/m -4,0 C -0,5 C 9,9 km/h (2 Bft) 0,00 %
05.01.2015 09:00 0,7 C 70 % 1032,1 hPa 0,0 l/m 3,2 km/h (1 Bft) W-SW 0,00 h 0,000 mm 0,0 UV-I 18 W/m -4,1 C 0,7 C 6,9 km/h (2 Bft) 0,00 %
05.01.2015 10:00 1,3 C 64 % 1031,6 hPa 0,0 l/m 7,0 km/h (2 Bft) W-SW 0,50 h 0,000 mm 1,0 UV-I 148 W/m -4,7 C -0,2 C 10,9 km/h (2 Bft) 0,00 %
05.01.2015 11:00 1,6 C 60 % 1030,8 hPa 0,0 l/m 2,1 km/h (1 Bft) W-SW 1,00 h 0,000 mm 1,0 UV-I 226 W/m -5,3 C 1,6 C 5,9 km/h (2 Bft) 0,00 %
05.01.2015 12:00 1,5 C 60 % 1030,3 hPa 0,0 l/m 4,3 km/h (1 Bft) W-SW 0,25 h 0,000 mm 1,0 UV-I 55 W/m -5,3 C 1,2 C 6,9 km/h (2 Bft) 0,00 %
05.01.2015 13:00 1,5 C 61 % 1029,5 hPa 0,0 l/m 6,1 km/h (2 Bft) S 0,00 h 0,000 mm 1,0 UV-I 53 W/m -5,3 C 0,3 C 10,9 km/h (2 Bft) 0,00 %
05.01.2015 14:00 1,3 C 61 % 1029,3 hPa 0,0 l/m 3,7 km/h (1 Bft) W-SW 0,00 h 0,000 mm 0,0 UV-I 26 W/m -5,4 C 1,3 C 6,9 km/h (2 Bft) 0,00 %
05.01.2015 15:00 1,2 C 60 % 1028,9 hPa 0,0 l/m 4,6 km/h (1 Bft) SW 0,00 h 0,000 mm 0,0 UV-I 5 W/m -5,7 C 1,2 C 7,9 km/h (2 Bft) 0,00 %
05.01.2015 16:00 1,3 C 58 % 1028,3 hPa 0,0 l/m 5,9 km/h (2 Bft) S 0,00 h 0,000 mm 0,0 UV-I 0 W/m -6,1 C -0,3 C 8,9 km/h (2 Bft) 0,00 %
05.01.2015 17:00 1,5 C 55 % 1028,4 hPa 0,0 l/m 5,2 km/h (1 Bft) W-SW 0,00 h 0,000 mm 0,0 UV-I 0 W/m -6,7 C 0,3 C 7,9 km/h (2 Bft) 0,00 %
05.01.2015 18:00 1,6 C 54 % 1028,8 hPa 0,0 l/m 1,6 km/h (1 Bft) SW 0,00 h 0,000 mm 0,0 UV-I 0 W/m -6,7 C 1,6 C 6,0 km/h (2 Bft) 0,00 %
05.01.2015 19:00 1,6 C 56 % 1028,9 hPa 0,0 l/m 0,9 km/h (0 Bft) W-SW 0,00 h 0,000 mm 0,0 UV-I 0 W/m -6,3 C 1,6 C 3,0 km/h (1 Bft) 0,00 %
05.01.2015 20:00 1,5 C 58 % 1028,7 hPa 0,0 l/m 3,0 km/h (1 Bft) W-SW 0,00 h 0,000 mm 0,0 UV-I 0 W/m -5,8 C 1,5 C 5,9 km/h (2 Bft) 0,00 %
05.01.2015 21:00 1,3 C 59 % 1028,5 hPa 0,0 l/m 2,9 km/h (1 Bft) SW 0,00 h 0,000 mm 0,0 UV-I 0 W/m -5,8 C 1,3 C 5,9 km/h (2 Bft) 0,00 %
05.01.2015 22:00 1,1 C 60 % 1028,8 hPa 0,0 l/m 1,1 km/h (0 Bft) W-SW 0,00 h 0,000 mm 0,0 UV-I 0 W/m -5,8 C 1,1 C 3,0 km/h (1 Bft) 0,00 %
05.01.2015 23:00 0,8 C 60 % 1028,8 hPa 0,0 l/m 0,7 km/h (0 Bft) W-SW 0,00 h 0,000 mm 0,0 UV-I 0 W/m -6,0 C 0,8 C 3,0 km/h (1 Bft) 0,00 %
06.01.2015 00:00 0,5 C 62 % 1028,8 hPa 0,0 l/m 1,1 km/h (0 Bft) W-SW 0,00 h 0,000 mm 0,0 UV-I 0 W/m -5,9 C 0,5 C 2,0 km/h (1 Bft) 0,00 %
06.01.2015 01:00 0,3 C 64 % 1028,4 hPa 0,0 l/m 0,6 km/h (0 Bft) N 0,00 h 0,000 mm 0,0 UV-I 0 W/m -5,7 C 0,3 C 1,0 km/h (0 Bft) 0,00 %
06.01.2015 02:00 0,2 C 65 % 1028,6 hPa 0,0 l/m 0,0 km/h (0 Bft) N 0,00 h 0,000 mm 0,0 UV-I 0 W/m -5,6 C 0,2 C 0,0 km/h (0 Bft) 0,00 %
06.01.2015 03:00 -0,1 C 67 % 1028,3 hPa 0,0 l/m 0,0 km/h (0 Bft) N 0,00 h 0,000 mm 0,0 UV-I 0 W/m -5,5 C -0,1 C 0,0 km/h (0 Bft) 0,00 %
06.01.2015 04:00 -0,3 C 69 % 1028,1 hPa 0,0 l/m 0,0 km/h (0 Bft) N 0,00 h 0,000 mm 0,0 UV-I 0 W/m -5,4 C -0,3 C 0,0 km/h (0 Bft) 0,00 %
06.01.2015 05:00 -0,4 C 69 % 1027,7 hPa 0,0 l/m 0,0 km/h (0 Bft) N 0,00 h 0,000 mm 0,0 UV-I 0 W/m -5,4 C -0,4 C 0,0 km/h (0 Bft) 0,00 %
06.01.2015 06:00 -0,4 C 69 % 1027,4 hPa 0,0 l/m 0,0 km/h (0 Bft) N 0,00 h 0,000 mm 0,0 UV-I 0 W/m -5,4 C -0,4 C 0,0 km/h (0 Bft) 0,00 %
06.01.2015 07:00 -0,5 C 71 % 1027,5 hPa 0,0 l/m 0,0 km/h (0 Bft) N 0,00 h 0,000 mm 0,0 UV-I 0 W/m -5,1 C -0,5 C 0,0 km/h (0 Bft) 0,00 %
06.01.2015 08:00 -0,5 C 71 % 1027,5 hPa 0,0 l/m 0,0 km/h (0 Bft) N 0,00 h 0,000 mm 0,0 UV-I 16 W/m -5,1 C -0,5 C 0,0 km/h (0 Bft) 0,00 %
06.01.2015 09:00 0,2 C 68 % 1027,4 hPa 0,0 l/m 0,0 km/h (0 Bft) N 0,00 h 0,000 mm 1,0 UV-I 73 W/m -5,0 C 0,2 C 0,0 km/h (0 Bft) 0,00 %
06.01.2015 10:00 1,2 C 63 % 1027,3 hPa 0,0 l/m 0,0 km/h (0 Bft) N 0,50 h 0,000 mm 1,0 UV-I 166 W/m -5,0 C 1,2 C 0,0 km/h (0 Bft) 0,00 %
06.01.2015 11:00 1,9 C 60 % 1027,1 hPa 0,0 l/m 0,0 km/h (0 Bft) O 1,00 h 0,000 mm 1,3 UV-I 215 W/m -5,1 C 1,9 C 0,0 km/h (0 Bft) 0,00 %
06.01.2015 12:00 2,2 C 59 % 1026,6 hPa 0,0 l/m 1,2 km/h (1 Bft) N 0,50 h 0,000 mm 1,3 UV-I 143 W/m -4,9 C 2,2 C 3,0 km/h (1 Bft) 0,00 %
06.01.2015 13:00 2,2 C 59 % 1026,1 hPa 0,0 l/m 0,6 km/h (0 Bft) O-NO 0,00 h 0,000 mm 1,0 UV-I 73 W/m -5,0 C 2,2 C 2,0 km/h (1 Bft) 0,00 %
06.01.2015 14:00 2,1 C 62 % 1026,0 hPa 0,0 l/m 3,7 km/h (1 Bft) O-SO 0,00 h 0,000 mm 1,0 UV-I 64 W/m -4,4 C 1,9 C 5,9 km/h (2 Bft) 0,00 %
06.01.2015 15:00 1,3 C 69 % 1026,3 hPa 0,0 l/m 2,6 km/h (1 Bft) O-SO 0,00 h 0,000 mm 1,0 UV-I 38 W/m -3,8 C 1,2 C 4,0 km/h (1 Bft) 0,00 %
06.01.2015 16:00 0,0 C 72 % 1026,8 hPa 0,0 l/m 1,5 km/h (1 Bft) O 0,00 h 0,000 mm 0,0 UV-I 6 W/m -4,4 C 0,0 C 3,0 km/h (1 Bft) 0,00 %
06.01.2015 17:00 0,1 C 73 % 1026,8 hPa 0,0 l/m 3,6 km/h (1 Bft) O-SO 0,00 h 0,000 mm 0,0 UV-I 0 W/m -4,3 C 0,1 C 5,9 km/h (2 Bft) 0,00 %
06.01.2015 18:00 0,1 C 72 % 1026,9 hPa 0,0 l/m 1,7 km/h (1 Bft) O 0,00 h 0,000 mm 0,0 UV-I 0 W/m -4,4 C 0,1 C 4,0 km/h (1 Bft) 0,00 %
06.01.2015 19:00 -0,5 C 75 % 1027,0 hPa 0,0 l/m 0,9 km/h (0 Bft) O-SO 0,00 h 0,000 mm 0,0 UV-I 0 W/m -4,4 C -0,5 C 3,0 km/h (1 Bft) 0,00 %
06.01.2015 20:00 -1,0 C 77 % 1027,1 hPa 0,0 l/m 1,0 km/h (0 Bft) O 0,00 h 0,000 mm 0,0 UV-I 0 W/m -4,6 C -1,0 C 2,0 km/h (1 Bft) 0,00 %
06.01.2015 21:00 -1,4 C 78 % 1026,8 hPa 0,0 l/m 1,8 km/h (1 Bft) O-SO 0,00 h 0,000 mm 0,0 UV-I 0 W/m -4,8 C -1,4 C 3,0 km/h (1 Bft) 0,00 %
06.01.2015 22:00 -1,8 C 79 % 1027,2 hPa 0,0 l/m 1,2 km/h (1 Bft) O 0,00 h 0,000 mm 0,0 UV-I 0 W/m -4,9 C -1,8 C 4,0 km/h (1 Bft) 0,00 %
06.01.2015 23:00 -1,8 C 77 % 1027,4 hPa 0,0 l/m 0,8 km/h (0 Bft) O-SO 0,00 h 0,000 mm 0,0 UV-I 0 W/m -5,2 C -1,8 C 4,0 km/h (1 Bft) 0,00 %
07.01.2015 00:00 -2,4 C 78 % 1027,2 hPa 0,0 l/m 0,7 km/h (0 Bft) O-SO 0,00 h 0,000 mm 0,0 UV-I 0 W/m -5,8 C -2,4 C 2,0 km/h (1 Bft) 0,00 %
07.01.2015 01:00 -2,6 C 76 % 1027,6 hPa 0,0 l/m 0,1 km/h (0 Bft) N 0,00 h 0,000 mm 0,0 UV-I 0 W/m -6,2 C -2,6 C 1,0 km/h (0 Bft) 0,00 %
07.01.2015 02:00 -2,6 C 74 % 1028,0 hPa 0,0 l/m 0,0 km/h (0 Bft) N 0,00 h 0,000 mm 0,0 UV-I 0 W/m -6,5 C -2,6 C 0,0 km/h (0 Bft) 0,00 %
07.01.2015 03:00 -3,0 C 74 % 1028,4 hPa 0,0 l/m 0,0 km/h (0 Bft) N 0,00 h 0,000 mm 0,0 UV-I 0 W/m -6,9 C -3,0 C 0,0 km/h (0 Bft) 0,00 %
07.01.2015 04:00 -2,9 C 78 % 1028,5 hPa 0,0 l/m 0,0 km/h (0 Bft) N 0,00 h 0,000 mm 0,0 UV-I 0 W/m -6,3 C -2,9 C 0,0 km/h (0 Bft) 0,00 %
07.01.2015 05:00 -3,0 C 78 % 1028,9 hPa 0,0 l/m 0,0 km/h (0 Bft) N 0,00 h 0,000 mm 0,0 UV-I 0 W/m -6,3 C -3,0 C 0,0 km/h (0 Bft) 0,00 %
07.01.2015 06:00 -2,9 C 79 % 1029,0 hPa 0,0 l/m 0,0 km/h (0 Bft) N 0,00 h 0,000 mm 0,0 UV-I 0 W/m -6,1 C -2,9 C 0,0 km/h (0 Bft) 0,00 %
07.01.2015 07:00 -2,6 C 81 % 1029,4 hPa 0,0 l/m 0,0 km/h (0 Bft) N 0,00 h 0,000 mm 0,0 UV-I 0 W/m -5,4 C -2,6 C 0,0 km/h (0 Bft) 0,00 %
07.01.2015 08:00 -2,4 C 83 % 1029,9 hPa 0,0 l/m 0,0 km/h (0 Bft) N 0,00 h 0,000 mm 0,0 UV-I 4 W/m -4,8 C -2,4 C 0,0 km/h (0 Bft) 0,00 %
07.01.2015 09:00 -1,9 C 83 % 1030,3 hPa 0,0 l/m 0,0 km/h (0 Bft) N 0,00 h 0,000 mm 1,0 UV-I 46 W/m -4,4 C -1,9 C 0,0 km/h (0 Bft) 0,00 %
07.01.2015 10:00 -1,6 C 81 % 1030,9 hPa 0,0 l/m 0,1 km/h (0 Bft) N 0,00 h 0,000 mm 1,0 UV-I 40 W/m -4,5 C -1,6 C 1,0 km/h (0 Bft) 0,00 %
07.01.2015 11:00 -1,0 C 77 % 1030,5 hPa 0,0 l/m 0,0 km/h (0 Bft) N 0,00 h 0,000 mm 1,0 UV-I 51 W/m -4,5 C -1,0 C 0,0 km/h (0 Bft) 0,00 %
07.01.2015 12:00 -0,3 C 75 % 1030,0 hPa 0,0 l/m 0,0 km/h (0 Bft) N 0,00 h 0,000 mm 1,0 UV-I 78 W/m -4,2 C -0,3 C 0,0 km/h (0 Bft) 0,00 %
07.01.2015 13:00 -0,2 C 77 % 1029,6 hPa 0,3 l/m 0,0 km/h (0 Bft) N 0,00 h 0,000 mm 1,0 UV-I 46 W/m -3,6 C -0,2 C 0,0 km/h (0 Bft) 0,00 %
07.01.2015 14:00 -0,0 C 80 % 1030,0 hPa 0,0 l/m 0,0 km/h (0 Bft) N 0,00 h 0,000 mm 1,0 UV-I 50 W/m -3,1 C -0,0 C 0,0 km/h (0 Bft) 0,00 %
07.01.2015 15:00 0,2 C 81 % 1030,6 hPa 0,0 l/m 0,2 km/h (0 Bft) N 0,00 h 0,000 mm 0,0 UV-I 14 W/m -2,7 C 0,2 C 2,0 km/h (1 Bft) 0,00 %
07.01.2015 16:00 0,4 C 82 % 1031,0 hPa 0,0 l/m 0,1 km/h (0 Bft) N 0,00 h 0,000 mm 0,0 UV-I 0 W/m -2,4 C 0,4 C 1,0 km/h (0 Bft) 0,00 %
07.01.2015 17:00 0,5 C 82 % 1031,4 hPa 0,0 l/m 0,0 km/h (0 Bft) N 0,00 h 0,000 mm 0,0 UV-I 0 W/m -2,2 C 0,5 C 0,0 km/h (0 Bft) 0,00 %
07.01.2015 18:00 0,6 C 82 % 1031,7 hPa 0,0 l/m 0,3 km/h (0 Bft) N 0,00 h 0,000 mm 0,0 UV-I 0 W/m -2,1 C 0,6 C 2,0 km/h (1 Bft) 0,00 %
07.01.2015 19:00 0,6 C 82 % 1032,2 hPa 0,0 l/m 0,1 km/h (0 Bft) N 0,00 h 0,000 mm 0,0 UV-I 0 W/m -2,1 C 0,6 C 1,0 km/h (0 Bft) 0,00 %
07.01.2015 20:00 0,6 C 81 % 1032,3 hPa 0,0 l/m 0,0 km/h (0 Bft) N 0,00 h 0,000 mm 0,0 UV-I 0 W/m -2,3 C 0,6 C 0,0 km/h (0 Bft) 0,00 %
07.01.2015 21:00 0,5 C 81 % 1032,7 hPa 0,0 l/m 0,0 km/h (0 Bft) N 0,00 h 0,000 mm 0,0 UV-I 0 W/m -2,4 C 0,5 C 0,0 km/h (0 Bft) 0,00 %
07.01.2015 22:00 0,4 C 82 % 1032,6 hPa 0,3 l/m 0,0 km/h (0 Bft) N 0,00 h 0,000 mm 0,0 UV-I 0 W/m -2,3 C 0,4 C 0,0 km/h (0 Bft) 0,00 %
07.01.2015 23:00 0,2 C 82 % 1032,5 hPa 0,0 l/m 0,0 km/h (0 Bft) N 0,00 h 0,000 mm 0,0 UV-I 0 W/m -2,5 C 0,2 C 0,0 km/h (0 Bft) 0,00 %
08.01.2015 00:00 0,2 C 82 % 1032,4 hPa 0,0 l/m 0,0 km/h (0 Bft) N 0,00 h 0,000 mm 0,0 UV-I 0 W/m -2,5 C 0,2 C 0,0 km/h (0 Bft) 0,00 %
08.01.2015 01:00 -0,2 C 82 % 1032,0 hPa 0,0 l/m 0,0 km/h (0 Bft) N 0,00 h 0,000 mm 0,0 UV-I 0 W/m -2,8 C -0,2 C 0,0 km/h (0 Bft) 0,00 %
08.01.2015 02:00 -0,2 C 83 % 1031,9 hPa 0,0 l/m 0,0 km/h (0 Bft) N 0,00 h 0,000 mm 0,0 UV-I 0 W/m -2,7 C -0,2 C 0,0 km/h (0 Bft) 0,00 %
08.01.2015 03:00 -0,4 C 83 % 1031,9 hPa 0,0 l/m 0,0 km/h (0 Bft) N 0,00 h 0,000 mm 0,0 UV-I 0 W/m -2,9 C -0,4 C 0,0 km/h (0 Bft) 0,00 %
08.01.2015 04:00 -0,6 C 84 % 1031,6 hPa 0,0 l/m 0,0 km/h (0 Bft) N 0,00 h 0,000 mm 0,0 UV-I 0 W/m -3,0 C -0,6 C 0,0 km/h (0 Bft) 0,00 %
08.01.2015 05:00 -0,5 C 83 % 1031,2 hPa 0,0 l/m 0,0 km/h (0 Bft) N 0,00 h 0,000 mm 0,0 UV-I 0 W/m -3,0 C -0,5 C 0,0 km/h (0 Bft) 0,00 %
08.01.2015 06:00 -0,3 C 83 % 1031,4 hPa 0,0 l/m 0,0 km/h (0 Bft) N 0,00 h 0,000 mm 0,0 UV-I 0 W/m -2,8 C -0,3 C 0,0 km/h (0 Bft) 0,00 %
08.01.2015 07:00 -0,0 C 83 % 1031,4 hPa 0,0 l/m 0,0 km/h (0 Bft) N 0,00 h 0,000 mm 0,0 UV-I 0 W/m -2,5 C -0,0 C 0,0 km/h (0 Bft) 0,00 %
08.01.2015 08:00 0,4 C 83 % 1031,4 hPa 0,0 l/m 0,0 km/h (0 Bft) N 0,00 h 0,000 mm 0,0 UV-I 13 W/m -2,2 C 0,4 C 0,0 km/h (0 Bft) 0,00 %
08.01.2015 09:00 0,8 C 82 % 1031,1 hPa 0,0 l/m 0,0 km/h (0 Bft) N 0,00 h 0,000 mm 1,0 UV-I 45 W/m -1,9 C 0,8 C 0,0 km/h (0 Bft) 0,00 %
08.01.2015 10:00 1,4 C 81 % 1031,0 hPa 0,3 l/m 0,1 km/h (0 Bft) N 0,50 h 0,000 mm 1,0 UV-I 156 W/m -1,5 C 1,4 C 1,0 km/h (0 Bft) 0,00 %
08.01.2015 11:00 2,6 C 83 % 1030,1 hPa 0,0 l/m 0,0 km/h (0 Bft) N 1,00 h 0,000 mm 1,0 UV-I 222 W/m 0,1 C 2,6 C 0,0 km/h (0 Bft) 0,00 %
08.01.2015 12:00 2,2 C 81 % 1029,4 hPa 0,0 l/m 0,1 km/h (0 Bft) N 0,25 h 0,000 mm 1,0 UV-I 68 W/m -0,8 C 2,2 C 1,0 km/h (0 Bft) 0,00 %
08.01.2015 13:00 1,7 C 80 % 1028,5 hPa 0,0 l/m 0,2 km/h (0 Bft) N 0,00 h 0,000 mm 1,0 UV-I 66 W/m -1,4 C 1,7 C 1,0 km/h (0 Bft) 0,00 %
08.01.2015 14:00 1,5 C 81 % 1028,2 hPa 0,0 l/m 0,1 km/h (0 Bft) N 0,00 h 0,000 mm 1,0 UV-I 54 W/m -1,4 C 1,5 C 1,0 km/h (0 Bft) 0,00 %
08.01.2015 15:00 1,4 C 81 % 1028,3 hPa 0,0 l/m 0,0 km/h (0 Bft) N 0,00 h 0,000 mm 0,0 UV-I 11 W/m -1,4 C 1,4 C 0,0 km/h (0 Bft) 0,00 %
08.01.2015 16:00 1,5 C 81 % 1028,1 hPa 0,0 l/m 0,0 km/h (0 Bft) N 0,00 h 0,000 mm 0,0 UV-I 0 W/m -1,4 C 1,5 C 0,0 km/h (0 Bft) 0,00 %
08.01.2015 17:00 1,4 C 82 % 1027,8 hPa 0,0 l/m 0,0 km/h (0 Bft) N 0,00 h 0,000 mm 0,0 UV-I 0 W/m -1,4 C 1,4 C 0,0 km/h (0 Bft) 0,00 %
08.01.2015 18:00 2,0 C 82 % 1027,3 hPa 0,0 l/m 0,0 km/h (0 Bft) N 0,00 h 0,000 mm 0,0 UV-I 0 W/m -0,9 C 2,0 C 0,0 km/h (0 Bft) 0,00 %
08.01.2015 19:00 2,7 C 83 % 1026,7 hPa 0,0 l/m 0,0 km/h (0 Bft) N 0,00 h 0,000 mm 0,0 UV-I 0 W/m -0,0 C 2,7 C 0,0 km/h (0 Bft) 0,00 %
08.01.2015 20:00 3,3 C 79 % 1026,1 hPa 0,0 l/m 0,0 km/h (0 Bft) N 0,00 h 0,000 mm 0,0 UV-I 0 W/m -0,1 C 3,3 C 0,0 km/h (0 Bft) 0,00 %
08.01.2015 21:00 4,2 C 72 % 1025,7 hPa 0,0 l/m 0,9 km/h (0 Bft) W 0,00 h 0,000 mm 0,0 UV-I 0 W/m -0,4 C 4,2 C 4,0 km/h (1 Bft) 0,00 %
08.01.2015 22:00 5,8 C 64 % 1025,9 hPa 0,0 l/m 4,2 km/h (1 Bft) N-NO 0,00 h 0,000 mm 0,0 UV-I 0 W/m -0,5 C 5,0 C 7,9 km/h (2 Bft) 0,00 %
08.01.2015 23:00 5,6 C 72 % 1026,8 hPa 0,6 l/m 7,8 km/h (2 Bft) SW 0,00 h 0,000 mm 0,0 UV-I 0 W/m 1,0 C 3,5 C 12,9 km/h (3 Bft) 0,00 %
09.01.2015 00:00 6,6 C 67 % 1027,0 hPa 0,0 l/m 19,7 km/h (3 Bft) W-SW 0,00 h 0,000 mm 0,0 UV-I 0 W/m 1,0 C -0,3 C 28,0 km/h (4 Bft) 0,00 %
09.01.2015 01:00 7,5 C 63 % 1028,3 hPa 0,0 l/m 17,0 km/h (3 Bft) W-SW 0,00 h 0,000 mm 0,0 UV-I 0 W/m 0,9 C 1,7 C 27,9 km/h (4 Bft) 0,00 %
09.01.2015 02:00 6,1 C 70 % 1030,0 hPa 0,0 l/m 13,0 km/h (3 Bft) W-SW 0,00 h 0,000 mm 0,0 UV-I 0 W/m 1,0 C 1,9 C 15,9 km/h (3 Bft) 0,00 %
09.01.2015 03:00 5,5 C 71 % 1030,9 hPa 0,0 l/m 7,7 km/h (2 Bft) W-SW 0,00 h 0,000 mm 0,0 UV-I 0 W/m 0,6 C 4,0 C 11,9 km/h (2 Bft) 0,00 %
09.01.2015 04:00 5,3 C 70 % 1030,8 hPa 0,0 l/m 8,9 km/h (2 Bft) W-SW 0,00 h 0,000 mm 0,0 UV-I 0 W/m 0,3 C 2,6 C 11,9 km/h (2 Bft) 0,00 %
09.01.2015 05:00 4,9 C 67 % 1030,8 hPa 0,0 l/m 5,0 km/h (1 Bft) W-SW 0,00 h 0,000 mm 0,0 UV-I 0 W/m -0,7 C 3,5 C 10,0 km/h (2 Bft) 0,00 %
09.01.2015 06:00 5,1 C 67 % 1030,3 hPa 0,0 l/m 2,3 km/h (1 Bft) W 0,00 h 0,000 mm 0,0 UV-I 0 W/m -0,6 C 5,0 C 5,0 km/h (1 Bft) 0,00 %
09.01.2015 07:00 4,8 C 72 % 1029,8 hPa 0,0 l/m 1,5 km/h (1 Bft) W-SW 0,00 h 0,000 mm 0,0 UV-I 0 W/m 0,2 C 4,8 C 4,0 km/h (1 Bft) 0,00 %
09.01.2015 08:00 4,5 C 75 % 1029,1 hPa 0,0 l/m 0,7 km/h (0 Bft) SW 0,00 h 0,000 mm 1,0 UV-I 24 W/m 0,3 C 4,5 C 1,0 km/h (0 Bft) 0,00 %
09.01.2015 09:00 5,3 C 72 % 1028,0 hPa 0,0 l/m 1,5 km/h (1 Bft) S-SW 0,25 h 0,000 mm 1,0 UV-I 54 W/m 0,7 C 5,3 C 4,0 km/h (1 Bft) 0,00 %
09.01.2015 10:00 6,0 C 69 % 1026,4 hPa 0,0 l/m 0,6 km/h (0 Bft) W-SW 0,00 h 0,000 mm 1,0 UV-I 94 W/m 0,7 C 6,0 C 3,0 km/h (1 Bft) 0,00 %
09.01.2015 11:00 6,7 C 65 % 1024,2 hPa 0,0 l/m 3,3 km/h (1 Bft) W-SW 0,00 h 0,000 mm 1,0 UV-I 86 W/m 0,6 C 6,7 C 5,9 km/h (2 Bft) 0,00 %
09.01.2015 12:00 7,8 C 58 % 1021,5 hPa 0,0 l/m 2,2 km/h (1 Bft) W-SW 0,50 h 0,000 mm 1,0 UV-I 149 W/m 0,1 C 7,8 C 5,0 km/h (1 Bft) 0,00 %
09.01.2015 13:00 8,9 C 48 % 1019,7 hPa 0,0 l/m 7,4 km/h (2 Bft) W-SW 0,75 h 0,000 mm 1,0 UV-I 154 W/m -1,5 C 7,0 C 9,9 km/h (2 Bft) 0,00 %
09.01.2015 14:00 9,9 C 39 % 1018,9 hPa 0,0 l/m 8,6 km/h (2 Bft) W-SW 0,00 h 0,000 mm 0,0 UV-I 38 W/m -3,5 C 7,7 C 12,9 km/h (3 Bft) 0,00 %
09.01.2015 15:00 9,9 C 45 % 1018,5 hPa 0,0 l/m 7,8 km/h (2 Bft) N-NW 0,00 h 0,000 mm 0,0 UV-I 7 W/m -1,7 C 8,5 C 11,9 km/h (2 Bft) 0,00 %
09.01.2015 16:00 8,8 C 59 % 1018,2 hPa 0,0 l/m 11,8 km/h (2 Bft) NO 0,00 h 0,000 mm 0,0 UV-I 0 W/m 1,2 C 5,5 C 15,9 km/h (3 Bft) 0,00 %
09.01.2015 17:00 7,8 C 64 % 1017,5 hPa 0,0 l/m 4,1 km/h (1 Bft) W-SW 0,00 h 0,000 mm 0,0 UV-I 0 W/m 1,5 C 7,8 C 7,9 km/h (2 Bft) 0,00 %
09.01.2015 18:00 9,4 C 60 % 1017,0 hPa 0,0 l/m 9,5 km/h (2 Bft) W-SW 0,00 h 0,000 mm 0,0 UV-I 0 W/m 2,0 C 6,6 C 15,0 km/h (3 Bft) 0,00 %
09.01.2015 19:00 9,5 C 62 % 1017,3 hPa 0,0 l/m 19,4 km/h (3 Bft) W-SW 0,00 h 0,000 mm 0,0 UV-I 0 W/m 2,6 C 3,5 C 26,0 km/h (4 Bft) 0,00 %
09.01.2015 20:00 9,0 C 66 % 1016,9 hPa 0,0 l/m 8,5 km/h (2 Bft) W-SW 0,00 h 0,000 mm 0,0 UV-I 0 W/m 3,0 C 7,3 C 12,9 km/h (3 Bft) 0,00 %
09.01.2015 21:00 8,7 C 69 % 1016,1 hPa 0,3 l/m 12,2 km/h (3 Bft) W-SW 0,00 h 0,000 mm 0,0 UV-I 0 W/m 3,2 C 4,8 C 18,0 km/h (3 Bft) 0,00 %
09.01.2015 22:00 7,7 C 80 % 1015,5 hPa 1,5 l/m 12,6 km/h (3 Bft) S-SW 0,00 h 0,000 mm 0,0 UV-I 0 W/m 4,4 C 3,5 C 16,9 km/h (3 Bft) 0,00 %
09.01.2015 23:00 8,4 C 76 % 1015,0 hPa 0,3 l/m 15,4 km/h (3 Bft) W-SW 0,00 h 0,000 mm 0,0 UV-I 0 W/m 4,4 C 3,0 C 22,9 km/h (4 Bft) 0,00 %
10.01.2015 00:00 8,6 C 77 % 1014,2 hPa 0,6 l/m 8,0 km/h (2 Bft) W-SW 0,00 h 0,000 mm 0,0 UV-I 0 W/m 4,7 C 6,5 C 14,0 km/h (3 Bft) 0,00 %
10.01.2015 01:00 8,1 C 83 % 1012,9 hPa 0,6 l/m 5,8 km/h (1 Bft) S 0,00 h 0,000 mm 0,0 UV-I 0 W/m 5,3 C 6,3 C 11,0 km/h (2 Bft) 0,00 %
10.01.2015 02:00 9,5 C 81 % 1012,2 hPa 1,5 l/m 5,8 km/h (2 Bft) W-SW 0,00 h 0,000 mm 0,0 UV-I 0 W/m 6,3 C 9,3 C 9,9 km/h (2 Bft) 0,00 %
10.01.2015 03:00 10,4 C 79 % 1011,3 hPa 0,6 l/m 14,1 km/h (3 Bft) W-SW 0,00 h 0,000 mm 0,0 UV-I 0 W/m 6,8 C 6,3 C 18,9 km/h (3 Bft) 0,00 %
10.01.2015 04:00 12,2 C 67 % 1010,9 hPa 0,0 l/m 16,2 km/h (3 Bft) O-NO 0,00 h 0,000 mm 0,0 UV-I 0 W/m 6,3 C 7,6 C 23,9 km/h (4 Bft) 0,00 %
10.01.2015 05:00 12,1 C 69 % 1012,6 hPa 0,0 l/m 10,4 km/h (2 Bft) W-SW 0,00 h 0,000 mm 0,0 UV-I 0 W/m 6,5 C 9,8 C 15,9 km/h (3 Bft) 0,00 %
10.01.2015 06:00 11,8 C 70 % 1013,1 hPa 0,0 l/m 11,2 km/h (2 Bft) W-SW 0,00 h 0,000 mm 0,0 UV-I 0 W/m 6,5 C 9,4 C 17,9 km/h (3 Bft) 0,00 %
10.01.2015 07:00 12,1 C 69 % 1013,3 hPa 0,0 l/m 8,4 km/h (2 Bft) W-SW 0,00 h 0,000 mm 0,0 UV-I 0 W/m 6,6 C 10,5 C 12,9 km/h (3 Bft) 0,00 %
10.01.2015 08:00 11,6 C 74 % 1013,8 hPa 0,3 l/m 6,5 km/h (2 Bft) W-SW 0,00 h 0,000 mm 0,0 UV-I 4 W/m 7,2 C 11,0 C 10,9 km/h (2 Bft) 0,00 %
10.01.2015 09:00 13,4 C 64 % 1013,1 hPa 0,0 l/m 23,3 km/h (4 Bft) W-SW 0,00 h 0,000 mm 1,0 UV-I 61 W/m 6,8 C 7,1 C 30,0 km/h (5 Bft) 0,00 %
10.01.2015 10:00 15,0 C 56 % 1012,1 hPa 0,0 l/m 12,2 km/h (2 Bft) O 1,00 h 0,000 mm 1,0 UV-I 166 W/m 6,2 C 12,2 C 20,9 km/h (4 Bft) 0,00 %
10.01.2015 11:00 15,6 C 52 % 1011,5 hPa 0,0 l/m 13,2 km/h (3 Bft) W-SW 1,00 h 0,000 mm 1,3 UV-I 211 W/m 5,8 C 12,9 C 22,0 km/h (4 Bft) 0,00 %
10.01.2015 12:00 15,9 C 51 % 1010,1 hPa 0,0 l/m 10,5 km/h (2 Bft) W-SW 0,75 h 0,000 mm 1,0 UV-I 166 W/m 5,9 C 14,0 C 15,8 km/h (3 Bft) 0,00 %
10.01.2015 13:00 16,3 C 50 % 1008,8 hPa 0,0 l/m 5,9 km/h (2 Bft) S-SW 0,00 h 0,000 mm 1,0 UV-I 77 W/m 5,7 C 16,0 C 10,9 km/h (2 Bft) 0,00 %
10.01.2015 14:00 16,7 C 46 % 1008,3 hPa 0,0 l/m 9,3 km/h (2 Bft) W-SW 0,00 h 0,000 mm 1,0 UV-I 69 W/m 4,9 C 15,1 C 13,8 km/h (3 Bft) 0,00 %
10.01.2015 15:00 15,9 C 49 % 1008,6 hPa 0,0 l/m 8,2 km/h (2 Bft) S-SO 0,00 h 0,000 mm 1,0 UV-I 50 W/m 5,3 C 15,0 C 14,9 km/h (3 Bft) 0,00 %
10.01.2015 16:00 14,7 C 51 % 1009,4 hPa 0,0 l/m 11,4 km/h (2 Bft) S 0,00 h 0,000 mm 0,0 UV-I 3 W/m 4,6 C 12,1 C 15,8 km/h (3 Bft) 0,00 %
10.01.2015 17:00 14,1 C 52 % 1009,8 hPa 0,0 l/m 13,1 km/h (3 Bft) W-SW 0,00 h 0,000 mm 0,0 UV-I 0 W/m 4,4 C 11,0 C 21,0 km/h (4 Bft) 0,00 %
10.01.2015 18:00 14,4 C 51 % 1009,6 hPa 0,0 l/m 14,9 km/h (3 Bft) NW 0,00 h 0,000 mm 0,0 UV-I 0 W/m 4,3 C 10,9 C 22,0 km/h (4 Bft) 0,00 %
10.01.2015 19:00 14,6 C 50 % 1009,0 hPa 0,0 l/m 10,6 km/h (2 Bft) W-SW 0,00 h 0,000 mm 0,0 UV-I 0 W/m 4,3 C 12,4 C 14,9 km/h (3 Bft) 0,00 %
10.01.2015 20:00 14,6 C 49 % 1008,6 hPa 0,0 l/m 13,5 km/h (3 Bft) S-SO 0,00 h 0,000 mm 0,0 UV-I 0 W/m 4,0 C 12,1 C 22,0 km/h (4 Bft) 0,00 %
10.01.2015 21:00 14,6 C 48 % 1008,7 hPa 0,0 l/m 13,1 km/h (3 Bft) NW 0,00 h 0,000 mm 0,0 UV-I 0 W/m 3,6 C 11,6 C 17,9 km/h (3 Bft) 0,00 %
10.01.2015 22:00 14,1 C 50 % 1009,2 hPa 0,0 l/m 9,6 km/h (2 Bft) W-SW 0,00 h 0,000 mm 0,0 UV-I 0 W/m 3,8 C 12,1 C 14,8 km/h (3 Bft) 0,00 %
10.01.2015 23:00 13,8 C 50 % 1009,2 hPa 0,0 l/m 13,3 km/h (3 Bft) SW 0,00 h 0,000 mm 0,0 UV-I 0 W/m 3,6 C 10,9 C 17,9 km/h (3 Bft) 0,00 %
11.01.2015 00:00 13,4 C 50 % 1008,8 hPa 0,0 l/m 14,6 km/h (3 Bft) W-SW 0,00 h 0,000 mm 0,0 UV-I 0 W/m 3,1 C 9,7 C 22,0 km/h (4 Bft) 0,00 %
11.01.2015 01:00 13,0 C 52 % 1008,8 hPa 0,0 l/m 9,0 km/h (2 Bft) S-SO 0,00 h 0,000 mm 0,0 UV-I 0 W/m 3,2 C 11,5 C 12,9 km/h (3 Bft) 0,00 %
11.01.2015 02:00 8,8 C 77 % 1010,9 hPa 0,3 l/m 4,9 km/h (1 Bft) SW 0,00 h 0,000 mm 0,0 UV-I 0 W/m 5,0 C 8,1 C 8,9 km/h (2 Bft) 0,00 %
11.01.2015 03:00 6,9 C 78 % 1011,4 hPa 0,3 l/m 4,9 km/h (1 Bft) W-SW 0,00 h 0,000 mm 0,0 UV-I 0 W/m 3,3 C 6,9 C 8,9 km/h (2 Bft) 0,00 %
11.01.2015 04:00 6,0 C 79 % 1011,3 hPa 0,3 l/m 3,0 km/h (1 Bft) SW 0,00 h 0,000 mm 0,0 UV-I 0 W/m 2,6 C 6,0 C 5,9 km/h (2 Bft) 0,00 %
11.01.2015 05:00 5,6 C 82 % 1011,5 hPa 2,4 l/m 1,0 km/h (0 Bft) S-SW 0,00 h 0,000 mm 0,0 UV-I 0 W/m 2,7 C 5,6 C 3,0 km/h (1 Bft) 0,00 %
11.01.2015 06:00 5,1 C 83 % 1011,3 hPa 2,1 l/m 1,6 km/h (1 Bft) W-SW 0,00 h 0,000 mm 0,0 UV-I 0 W/m 2,4 C 5,1 C 3,0 km/h (1 Bft) 0,00 %
11.01.2015 07:00 4,2 C 83 % 1012,4 hPa 1,5 l/m 5,0 km/h (1 Bft) W-SW 0,00 h 0,000 mm 0,0 UV-I 0 W/m 1,5 C 2,7 C 6,9 km/h (2 Bft) 0,00 %
11.01.2015 08:00 3,2 C 83 % 1013,5 hPa 0,6 l/m 4,2 km/h (1 Bft) N-NO 0,00 h 0,000 mm 0,0 UV-I 2 W/m 0,6 C 2,3 C 7,9 km/h (2 Bft) 0,00 %
11.01.2015 09:00 2,6 C 82 % 1014,9 hPa 1,8 l/m 6,6 km/h (2 Bft) W-NW 0,00 h 0,000 mm 0,0 UV-I 13 W/m -0,2 C 1,1 C 11,9 km/h (2 Bft) 0,00 %
11.01.2015 10:00 0,8 C 81 % 1016,9 hPa 0,9 l/m 1,9 km/h (1 Bft) W-SW 0,00 h 0,000 mm 1,0 UV-I 27 W/m -2,2 C 0,8 C 4,0 km/h (1 Bft) 0,00 %
11.01.2015 11:00 1,5 C 79 % 1017,4 hPa 0,6 l/m 4,9 km/h (1 Bft) W-SW 0,00 h 0,000 mm 1,0 UV-I 43 W/m -1,8 C 0,9 C 8,9 km/h (2 Bft) 0,00 %
11.01.2015 12:00 1,0 C 79 % 1018,5 hPa 0,3 l/m 7,9 km/h (2 Bft) W 0,00 h 0,000 mm 1,0 UV-I 36 W/m -2,3 C -1,2 C 10,9 km/h (2 Bft) 0,00 %
11.01.2015 13:00 2,3 C 71 % 1017,9 hPa 0,0 l/m 8,8 km/h (2 Bft) NO 0,00 h 0,000 mm 1,0 UV-I 103 W/m -2,4 C 0,2 C 15,8 km/h (3 Bft) 0,00 %
11.01.2015 14:00 2,5 C 70 % 1018,0 hPa 0,0 l/m 4,8 km/h (1 Bft) S 1,00 h 0,000 mm 1,0 UV-I 207 W/m -2,5 C 1,7 C 9,9 km/h (2 Bft) 0,00 %
11.01.2015 15:00 2,0 C 70 % 1017,8 hPa 0,0 l/m 8,6 km/h (2 Bft) SW 0,25 h 0,000 mm 1,0 UV-I 37 W/m -3,0 C -0,6 C 14,0 km/h (3 Bft) 0,00 %
11.01.2015 16:00 1,0 C 76 % 1018,4 hPa 0,0 l/m 3,9 km/h (1 Bft) O-SO 0,00 h 0,000 mm 0,0 UV-I 0 W/m -2,8 C 1,0 C 8,9 km/h (2 Bft) 0,00 %
11.01.2015 17:00 1,3 C 68 % 1018,5 hPa 0,0 l/m 11,4 km/h (2 Bft) W-SW 0,00 h 0,000 mm 0,0 UV-I 0 W/m -4,0 C -2,6 C 15,9 km/h (3 Bft) 0,00 %
11.01.2015 18:00 1,5 C 64 % 1019,1 hPa 0,0 l/m 7,8 km/h (2 Bft) W-SW 0,00 h 0,000 mm 0,0 UV-I 0 W/m -4,6 C -0,6 C 14,0 km/h (3 Bft) 0,00 %
11.01.2015 19:00 1,8 C 62 % 1019,9 hPa 0,0 l/m 14,8 km/h (3 Bft) W-SW 0,00 h 0,000 mm 0,0 UV-I 0 W/m -4,8 C -4,1 C 20,9 km/h (4 Bft) 0,00 %
11.01.2015 20:00 2,0 C 61 % 1021,2 hPa 0,0 l/m 10,6 km/h (2 Bft) S 0,00 h 0,000 mm 0,0 UV-I 0 W/m -4,8 C -1,9 C 17,9 km/h (3 Bft) 0,00 %
11.01.2015 21:00 2,2 C 60 % 1021,8 hPa 0,0 l/m 8,0 km/h (2 Bft) SW 0,00 h 0,000 mm 0,0 UV-I 0 W/m -4,8 C -0,7 C 13,0 km/h (3 Bft) 0,00 %
11.01.2015 22:00 2,3 C 60 % 1022,3 hPa 0,0 l/m 7,1 km/h (2 Bft) W-SW 0,00 h 0,000 mm 0,0 UV-I 0 W/m -4,8 C 0,3 C 13,0 km/h (3 Bft) 0,00 %
11.01.2015 23:00 2,4 C 62 % 1022,9 hPa 0,0 l/m 8,1 km/h (2 Bft) W-SW 0,00 h 0,000 mm 0,0 UV-I 0 W/m -4,1 C 0,0 C 11,9 km/h (2 Bft) 0,00 %
Min-Datum _ 07.01.15 09.01.15 10.01.15 - 05.01.15 - - - - - 07.01.15 11.01.15 05.01.15 05.01.15
_ Min-Zeit 03:45 14:30 14:30 - 17:15 - - - - - 03:30 19:30 17:15 00:00
Minimum _ -3,2 C 35 % 1008,1 hPa - 0,0 km/h (0 Bft) - - - - - -7,1 C -9,4 C 0,0 km/h (0 Bft) 0,00 %
Max-Datum _ 10.01.15 08.01.15 07.01.15 11.01.15 10.01.15 - 05.01.15 05.01.15 06.01.15 05.01.15 10.01.15 10.01.15 10.01.15 05.01.15
_ Max-Zeit 14:15 03:45 22:45 05:45 09:15 - 10:30 00:00 11:45 11:30 08:15 14:00 20:30 00:00
Maximum _ 16,7 C 84 % 1032,8 hPa 2,4 l/m 34,6 km/h
W-SW (5 Bft)
- 0,25 h 0,000 mm 2,0 UV-I 245 W/m 7,5 C 16,6 C 44,3 km/h
S-SO (6 Bft)
0,00 %
Durchschnitt _ 3,7 C 70 % 1023,9 hPa #18,3 l/m 4,6 km/h (1 Bft) W-SW #11:00 h #0,000 mm 1,0 UV-I 73 W/m -1,5 C 2,7 C 7,4 km/h (2 Bft) 0,00 %